Location: Mount Cross
(36.6390°N, 79.4878°W)
Time: 11:59:41
(UTC+00:00)

Tiros 1 - Pass Details

Date: 05 April 2023
Orbit: 627 x 661 km, 48.4° (Epoch: 05 June)

Event Time Altitude Azimuth Distance (km) Brightness Sun altitude
Rises 11:19:57 0° 308° (NW) 2,989 10.1 3.5°
Reaches altitude 10° 11:22:27 10° 316° (NW) 2,077 9.4 4.0°
Maximum altitude 11:26:55 37° 25° (NNE) 1,022 8.6 4.9°
Drops below altitude 10° 11:31:21 10° 93° (E) 2,069 12.5 5.7°
Sets 11:33:50 0° 101° (ESE) 2,976 12.5 6.2°
